Time,TemperatureF,DewpointF,PressureIn,WindDirection,WindDirectionDegrees,WindSpeedMPH,WindSpeedGustMPH,Humidity,HourlyPrecipIn,Conditions,Clouds,dailyrainin,SoftwareType,DateUTC
2013-07-14 00:32:00,74.0,-99.9,30.29,SSE,156,-999.0,-999.0,-999,0.00,,,-99.99,,2013-07-14 04:32:00,
2013-07-14 00:42:00,74.0,-99.9,30.29,SSE,156,-999.0,-999.0,-999,0.00,,,-99.99,,2013-07-14 04:42:00,
2013-07-14 00:52:00,74.0,-99.9,30.29,NW,312,-999.0,4.0,-999,-99.99,,,-99.99,,2013-07-14 04:52:00,
2013-07-14 01:32:00,74.0,-99.9,30.29,NW,312,-999.0,4.0,-999,-99.99,,,-99.99,,2013-07-14 05:32:00,
2013-07-14 01:43:00,74.0,-99.9,30.29,NW,312,-999.0,4.0,-999,-99.99,,,-99.99,,2013-07-14 05:43:00,
2013-07-14 01:52:00,74.0,-99.9,30.29,NW,326,-999.0,3.0,-999,0.00,,,-99.99,,2013-07-14 05:52:00,
2013-07-14 02:32:00,74.0,-99.9,30.29,NW,326,-999.0,3.0,-999,0.00,,,-99.99,,2013-07-14 06:32:00,
2013-07-14 02:42:00,74.0,-99.9,30.29,NW,326,-999.0,3.0,-999,0.00,,,-99.99,,2013-07-14 06:42:00,
2013-07-14 02:52:00,73.0,-99.9,30.29,North,1,-999.0,-999.0,-999,0.00,,,-99.99,,2013-07-14 06:52:00,
2013-07-14 03:33:00,73.0,-99.9,30.29,North,1,-999.0,-999.0,-999,0.00,,,-99.99,,2013-07-14 07:33:00,
2013-07-14 03:43:00,73.0,-99.9,30.29,North,1,-999.0,-999.0,-999,0.00,,,-99.99,,2013-07-14 07:43:00,
2013-07-14 03:52:00,74.0,-99.9,30.30,North,1,-999.0,-999.0,-999,0.00,,,-99.99,,2013-07-14 07:52:00,
2013-07-14 04:32:00,74.0,-99.9,30.30,North,1,-999.0,-999.0,-999,0.00,,,-99.99,,2013-07-14 08:32:00,
2013-07-14 04:42:00,74.0,-99.9,30.30,North,1,-999.0,-999.0,-999,0.00,,,-99.99,,2013-07-14 08:42:00,
2013-07-14 04:52:00,74.0,-99.9,30.31,North,1,-999.0,-999.0,-999,0.00,,,-99.99,,2013-07-14 08:52:00,
2013-07-14 05:32:00,74.0,-99.9,30.31,North,1,-999.0,-999.0,-999,0.00,,,-99.99,,2013-07-14 09:32:00,
2013-07-14 05:42:00,74.0,-99.9,30.31,North,1,-999.0,-999.0,-999,0.00,,,-99.99,,2013-07-14 09:42:00,
2013-07-14 05:52:00,74.0,-99.9,30.32,North,1,-999.0,-999.0,-999,0.00,,,-99.99,,2013-07-14 09:52:00,
2013-07-14 06:32:00,74.0,-99.9,30.32,North,1,-999.0,-999.0,-999,0.00,,,-99.99,,2013-07-14 10:32:00,
2013-07-14 06:42:00,74.0,-99.9,30.32,North,1,-999.0,-999.0,-999,0.00,,,-99.99,,2013-07-14 10:42:00,
2013-07-14 06:52:00,75.0,-99.9,30.34,North,1,-999.0,-999.0,-999,0.00,,,-99.99,,2013-07-14 10:52:00,
2013-07-14 07:32:00,75.0,-99.9,30.34,North,1,-999.0,-999.0,-999,0.00,,,-99.99,,2013-07-14 11:32:00,
2013-07-14 07:43:00,75.0,-99.9,30.34,North,1,-999.0,-999.0,-999,0.00,,,-99.99,,2013-07-14 11:43:00,
2013-07-14 07:52:00,76.0,-99.9,30.35,West,268,2.0,-999.0,-999,0.00,,,-99.99,,2013-07-14 11:52:00,
2013-07-14 08:33:00,76.0,-99.9,30.35,West,268,2.0,-999.0,-999,0.00,,,-99.99,,2013-07-14 12:33:00,
2013-07-14 08:43:00,76.0,-99.9,30.35,West,268,2.0,-999.0,-999,0.00,,,-99.99,,2013-07-14 12:43:00,
2013-07-14 08:52:00,76.0,-99.9,30.35,NNW,342,6.0,8.0,-999,0.00,,,-99.99,,2013-07-14 12:52:00,
2013-07-14 09:32:00,76.0,-99.9,30.35,NNW,342,6.0,8.0,-999,0.00,,,-99.99,,2013-07-14 13:32:00,
2013-07-14 09:43:00,76.0,-99.9,30.35,NNW,342,6.0,8.0,-999,0.00,,,-99.99,,2013-07-14 13:43:00,
2013-07-14 09:52:00,79.0,-99.9,30.34,NE,37,6.0,10.0,-999,0.00,,,-99.99,,2013-07-14 13:52:00,
2013-07-14 10:33:00,79.0,-99.9,30.34,NE,37,6.0,10.0,-999,0.00,,,-99.99,,2013-07-14 14:33:00,
2013-07-14 10:43:00,79.0,-99.9,30.34,NE,37,6.0,10.0,-999,0.00,,,-99.99,,2013-07-14 14:43:00,
2013-07-14 10:52:00,83.0,-99.9,30.33,ENE,77,7.0,10.0,-999,0.00,,,-99.99,,2013-07-14 14:52:00,
2013-07-14 11:32:00,83.0,-99.9,30.33,ENE,77,7.0,10.0,-999,0.00,,,-99.99,,2013-07-14 15:32:00,
2013-07-14 11:42:00,83.0,-99.9,30.33,ENE,77,7.0,10.0,-999,0.00,,,-99.99,,2013-07-14 15:42:00,
2013-07-14 11:52:00,84.0,-99.9,30.32,SE,140,3.0,10.0,-999,0.00,,,-99.99,,2013-07-14 15:52:00,
2013-07-14 12:32:00,84.0,-99.9,30.32,SE,140,3.0,10.0,-999,0.00,,,-99.99,,2013-07-14 16:32:00,
2013-07-14 12:43:00,84.0,-99.9,30.32,SE,140,3.0,10.0,-999,0.00,,,-99.99,,2013-07-14 16:43:00,
2013-07-14 12:52:00,87.0,-99.9,30.31,West,276,3.0,7.0,-999,0.00,,,-99.99,,2013-07-14 16:52:00,
2013-07-14 13:32:00,87.0,-99.9,30.31,West,276,3.0,7.0,-999,0.00,,,-99.99,,2013-07-14 17:32:00,
2013-07-14 13:43:00,87.0,-99.9,30.31,West,276,3.0,7.0,-999,0.00,,,-99.99,,2013-07-14 17:43:00,
2013-07-14 13:52:00,89.0,-99.9,30.30,NNW,338,8.0,12.0,-999,0.00,,,-99.99,,2013-07-14 17:52:00,
2013-07-14 14:32:00,89.0,-99.9,30.30,NNW,338,8.0,12.0,-999,0.00,,,-99.99,,2013-07-14 18:32:00,
2013-07-14 14:42:00,89.0,-99.9,30.30,NNW,338,8.0,12.0,-999,0.00,,,-99.99,,2013-07-14 18:42:00,
2013-07-14 14:52:00,89.0,-99.9,30.29,NNE,23,-999.0,9.0,-999,0.00,,,-99.99,,2013-07-14 18:52:00,
2013-07-14 15:32:00,89.0,-99.9,30.29,NNE,23,-999.0,9.0,-999,0.00,,,-99.99,,2013-07-14 19:32:00,
2013-07-14 15:43:00,89.0,-99.9,30.29,NNE,23,-999.0,9.0,-999,0.00,,,-99.99,,2013-07-14 19:43:00,
2013-07-14 15:52:00,90.0,-99.9,30.27,North,-999,5.0,12.0,-999,0.00,,,-99.99,,2013-07-14 19:52:00,
2013-07-14 16:32:00,90.0,-99.9,30.27,North,-999,5.0,12.0,-999,0.00,,,-99.99,,2013-07-14 20:32:00,
2013-07-14 16:43:00,90.0,-99.9,30.27,North,-999,5.0,12.0,-999,0.00,,,-99.99,,2013-07-14 20:43:00,
2013-07-14 16:52:00,91.0,-99.9,30.25,NNW,348,9.0,9.0,-999,0.00,,,-99.99,,2013-07-14 20:52:00,
2013-07-14 17:32:00,91.0,-99.9,30.25,NNW,348,9.0,9.0,-999,0.00,,,-99.99,,2013-07-14 21:32:00,
2013-07-14 17:43:00,91.0,-99.9,30.25,NNW,348,9.0,9.0,-999,0.00,,,-99.99,,2013-07-14 21:43:00,
2013-07-14 17:52:00,91.0,-99.9,30.24,NW,312,7.0,10.0,-999,0.00,,,-99.99,,2013-07-14 21:52:00,
2013-07-14 18:32:00,91.0,-99.9,30.24,NW,312,7.0,10.0,-999,0.00,,,-99.99,,2013-07-14 22:32:00,
2013-07-14 18:42:00,91.0,-99.9,30.24,NW,312,7.0,10.0,-999,0.00,,,-99.99,,2013-07-14 22:42:00,
2013-07-14 18:52:00,89.0,-99.9,30.24,North,10,-999.0,9.0,-999,0.00,,,-99.99,,2013-07-14 22:52:00,
2013-07-14 19:32:00,89.0,-99.9,30.24,North,10,-999.0,9.0,-999,0.00,,,-99.99,,2013-07-14 23:32:00,
2013-07-14 19:42:00,89.0,-99.9,30.24,North,10,-999.0,9.0,-999,0.00,,,-99.99,,2013-07-14 23:42:00,
2013-07-14 19:52:00,85.0,-99.9,30.24,NW,309,-999.0,-999.0,-999,0.00,,,-99.99,,2013-07-14 23:52:00,
2013-07-14 20:32:00,85.0,-99.9,30.24,NW,309,-999.0,-999.0,-999,0.00,,,-99.99,,2013-07-15 00:32:00,
2013-07-14 20:43:00,85.0,-99.9,30.24,NW,309,-999.0,-999.0,-999,0.00,,,-99.99,,2013-07-15 00:43:00,
2013-07-14 20:52:00,79.0,-99.9,30.25,NW,309,-999.0,-999.0,-999,0.00,,,-99.99,,2013-07-15 00:52:00,
2013-07-14 21:32:00,79.0,-99.9,30.25,NW,309,-999.0,-999.0,-999,0.00,,,-99.99,,2013-07-15 01:32:00,
2013-07-14 21:43:00,79.0,-99.9,30.25,NW,309,-999.0,-999.0,-999,0.00,,,-99.99,,2013-07-15 01:43:00,
2013-07-14 21:52:00,76.0,-99.9,30.26,NW,309,-999.0,3.0,-999,0.00,,,-99.99,,2013-07-15 01:52:00,
2013-07-14 22:32:00,76.0,-99.9,30.26,NW,309,-999.0,3.0,-999,0.00,,,-99.99,,2013-07-15 02:32:00,
2013-07-14 22:42:00,76.0,-99.9,30.26,NW,309,-999.0,3.0,-999,0.00,,,-99.99,,2013-07-15 02:42:00,
2013-07-14 22:52:00,75.0,-99.9,30.26,NW,309,-999.0,-999.0,-999,0.00,,,-99.99,,2013-07-15 02:52:00,
2013-07-14 23:32:00,75.0,-99.9,30.26,NW,309,-999.0,-999.0,-999,0.00,,,-99.99,,2013-07-15 03:32:00,
2013-07-14 23:43:00,75.0,-99.9,30.26,NW,309,-999.0,-999.0,-999,0.00,,,-99.99,,2013-07-15 03:43:00,
2013-07-14 23:52:00,75.0,-99.9,30.26,WNW,285,3.0,7.0,-999,0.00,,,-99.99,,2013-07-15 03:52:00,